Location: Unspecified
(43.2599°N, 0.0000°E)
Time: 10:11:00
(UTC+00:00)

COSMOS 2428 - Visible Passes

Search period start: 04 April 2026 00:00
Search period end: 14 April 2026 00:00
Orbit: 842 x 856 km, 70.9° (Epoch: 29 March)

Date Brightness Start Highest point End Pass type
(mag) Time Alt. Az. Time Alt. Az. Time Alt. Az.
4 Apr 5.4 00:47:15 10° NW 00:47:46 10° NW 00:48:44 10° NNW visible
4 Apr 4.5 22:52:09 27° N 22:52:09 27° N 22:54:54 10° NNE visible
5 Apr 5.4 00:34:04 10° NW 00:34:59 10° NW 00:36:02 10° NNW visible
5 Apr 4.9 20:56:58 11° NE 20:56:58 11° NE 20:57:12 10° NE visible
5 Apr 4.2 22:38:53 32° N 22:38:53 32° N 22:42:06 10° NNE visible
6 Apr 5.4 00:21:01 10° NW 00:22:11 11° NW 00:23:20 10° NNW visible
6 Apr 4.7 20:43:32 13° NE 20:43:32 13° NE 20:44:23 10° NE visible
6 Apr 3.9 22:25:25 39° NNW 22:25:25 39° NNW 22:29:20 10° NNE visible
7 Apr 5.5 00:08:08 10° NW 00:09:22 11° NW 00:10:38 10° NNW visible
7 Apr 4.4 20:29:52 17° ENE 20:29:52 17° ENE 20:31:35 10° NE visible
7 Apr 3.5 22:11:44 48° NNW 22:11:44 48° NNW 22:16:33 10° NNE visible
7 Apr 5.5 23:55:15 10° NW 23:56:35 11° NW 23:57:55 10° NNW visible
8 Apr 4.0 20:15:49 21° E 20:15:49 21° E 20:18:47 10° NE visible
8 Apr 3.3 21:57:39 51° W 21:58:09 53° WNW 22:03:46 10° NNE visible
8 Apr 5.5 23:42:23 10° NW 23:43:47 11° NW 23:45:11 10° NNW visible
9 Apr 3.7 20:01:02 23° ESE 20:01:32 24° ESE 20:05:59 10° NE visible
9 Apr 3.3 21:42:46 30° WSW 21:45:21 53° WNW 21:50:59 10° NNE visible
9 Apr 5.6 23:29:30 10° NW 23:30:59 11° NW 23:32:28 10° NNW visible
10 Apr 5.5 04:50:22 10° N 04:54:04 17° NE 04:57:45 10° E visible
10 Apr 3.7 19:44:22 10° SSE 19:48:46 23° E 19:53:11 10° NE visible
10 Apr 3.4 21:26:59 10° SW 21:32:34 54° WNW 21:38:12 10° NNE visible
10 Apr 5.6 23:16:38 10° NW 23:18:11 11° NW 23:19:45 10° NNW visible
11 Apr 5.5 04:37:36 10° N 04:41:16 17° NE 04:44:55 10° E visible
11 Apr 3.8 19:31:37 10° SSE 19:35:59 23° E 19:40:23 10° NE visible
11 Apr 3.4 21:14:12 10° SW 21:19:47 54° WNW 21:25:25 10° NNE visible
11 Apr 5.7 23:03:46 10° NW 23:05:23 11° NW 23:07:01 10° NNW visible
12 Apr 5.5 04:24:50 10° N 04:28:29 17° NE 04:32:06 10° E visible
12 Apr 3.8 19:18:51 10° SSE 19:23:12 23° E 19:27:35 10° NE visible
12 Apr 3.4 21:01:24 10° SW 21:06:59 55° WNW 21:12:38 10° NNE visible
12 Apr 5.7 22:50:54 10° WNW 22:52:35 11° NW 22:54:16 10° NNW visible
13 Apr 5.6 04:12:04 10° N 04:15:41 17° NE 04:19:16 10° E visible
13 Apr 3.8 19:06:06 10° SSE 19:10:25 23° E 19:14:47 10° NE visible
13 Apr 3.4 20:48:36 10° SW 20:54:13 55° WNW 20:59:51 10° NNE visible
13 Apr 5.7 22:38:02 10° WNW 22:39:47 11° NW 22:41:32 10° NNW visible
